Location: Bruderhein
(53.8035°N, 112.9265°W)
Time: 07:54:43
(UTC+00:00)

RS-15 - Pass Details

Date: 31 March 2023
Orbit: 1885 x 2159 km, 64.8° (Epoch: 29 May)

Event Time Altitude Azimuth Distance (km) Brightness Sun altitude
Rises 03:27:02 0° 278° (W) 5,687 12.1 -12.6°
Reaches altitude 10° 03:30:45 10° 284° (WNW) 4,678 11.4 -13.1°
Maximum altitude 03:42:39 50° 359° (N) 2,562 8.8 -14.6°
Drops below altitude 10° 03:54:09 10° 73° (ENE) 4,523 9.6 -16.1°
Enters shadow 03:56:40 - 78° (ENE) 5,207 9.8 -16.4°
